CW0214 Weather Reports


time (UTC)temp
C
wind
direction
speed
KPH
gust
KPH
rain 1hr
cm
rain 24hr
cm
rain mn
cm
humidity
%
barometer
mb
20200930033052 15 206 1.6 4.8 0.00 0.00 0.00 87 1013.9
20200930032556 15 268 1.6 8.0 0.00 0.00 0.00 87 1014.0
20200930032051 15 275 1.6 12.9 0.00 0.00 0.00 87 1014.1
20200930031555 15 272 1.6 8.0 0.00 0.00 0.00 86 1014.1
20200930031053 15 294 0.0 8.0 0.00 0.00 0.00 86 1014.1
20200930030553 15 266 1.6 11.3 0.00 0.00 0.00 86 1014.1
20200930030053 15 247 1.6 11.3 0.00 0.00 0.00 86 1014.1
20200930025552 15 280 1.6 12.9 0.00 0.00 0.00 85 1014.1
20200930025059 15 267 1.6 11.3 0.00 0.00 0.00 85 1014.1
20200930024552 15 275 8.0 16.1 0.00 0.00 0.00 85 1014.1
20200930024053 15 281 3.2 19.3 0.00 0.00 0.00 84 1014.1
20200930023559 15 237 3.2 9.7 0.00 0.00 0.00 84 1014.2
20200930023102 15 220 0.0 1.6 0.00 0.00 0.00 83 1014.2
20200930022554 15 236 0.0 0.0 0.00 0.00 0.00 83 1014.2
20200930022052 15 236 0.0 0.0 0.00 0.00 0.00 83 1014.2
20200930021554 15 240 1.6 12.9 0.00 0.00 0.00 82 1014.2
20200930021053 15 288 1.6 12.9 0.00 0.00 0.00 82 1014.2
20200930020552 15 254 1.6 9.7 0.00 0.00 0.00 81 1014.2
20200930020053 15 250 1.6 14.5 0.00 0.00 0.00 81 1014.2
20200930015551 15 252 3.2 12.9 0.00 0.00 0.00 81 1014.2
20200930015054 15 253 6.4 14.5 0.00 0.00 0.00 80 1014.2
20200930014552 15 288 4.8 12.9 0.00 0.00 0.00 80 1014.3
20200930014054 15 222 3.2 12.9 0.00 0.00 0.00 80 1014.3
20200930013552 15 271 6.4 14.5 0.00 0.00 0.00 80 1014.3
20200930013053 15 275 8.0 12.9 0.00 0.00 0.00 80 1014.2
20200930012556 16 262 4.8 12.9 0.00 0.00 0.00 79 1014.2
20200930012054 16 253 3.2 16.1 0.00 0.00 0.00 79 1014.2
20200930011552 16 257 4.8 14.5 0.00 0.00 0.00 79 1014.3
20200930011052 16 244 1.6 9.7 0.00 0.00 0.00 79 1014.3
20200930010551 16 266 8.0 14.5 0.00 0.00 0.00 79 1014.2
20200930010052 16 233 3.2 12.9 0.00 0.00 0.00 79 1014.3
20200930005553 16 223 1.6 8.0 0.00 0.00 0.00 79 1014.3
20200930005053 16 264 0.0 3.2 0.00 0.00 0.00 79 1014.3
20200930004553 16 259 1.6 11.3 0.00 0.00 0.00 79 1014.3
20200930004053 16 233 0.0 0.0 0.00 0.00 0.00 79 1014.3
20200930003552 16 203 0.0 8.0 0.00 0.00 0.00 78 1014.4
20200930003052 16 209 0.0 9.7 0.00 0.00 0.00 78 1014.3
20200930002552 16 262 1.6 8.0 0.00 0.00 0.00 78 1014.3
20200930002052 16 234 0.0 8.0 0.00 0.00 0.00 78 1014.4
20200930001552 16 233 0.0 0.0 0.00 0.00 0.00 79 1014.4
20200930001052 16 243 1.6 8.0 0.00 0.00 0.00 78 1014.4
20200930000552 16 224 3.2 11.3 0.00 0.00 0.00 78 1014.4
20200930000053 16 224 4.8 14.5 0.00 0.00 0.00 78 1014.4
20200929235552 16 223 3.2 9.7 0.00 0.00 0.00 78 1014.4
20200929235055 16 192 0.0 0.0 0.00 0.00 0.00 77 1014.4
20200929234552 16 191 4.8 8.0 0.00 0.00 0.00 77 1014.2
20200929234053 17 204 0.0 4.8 0.00 0.00 0.00 77 1014.3
20200929233552 17 198 0.0 8.0 0.00 0.00 0.00 76 1014.3
20200929233102 17 213 1.6 8.0 0.00 0.00 0.00 76 1014.3
20200929232554 17 212 0.0 0.0 0.00 0.00 0.00 76 1014.2
20200929232052 17 223 0.0 0.0 0.00 0.00 0.00 75 1014.2
20200929231556 17 228 1.6 4.8 0.00 0.00 0.00 75 1014.3
20200929231053 17 221 3.2 11.3 0.00 0.00 0.00 75 1014.3
20200929230551 17 227 3.2 9.7 0.00 0.00 0.00 74 1014.4
20200929230052 17 234 4.8 11.3 0.00 0.00 0.00 74 1014.5
20200929225552 17 229 0.0 4.8 0.00 0.00 0.00 73 1014.5
20200929225055 18 211 1.6 9.7 0.00 0.00 0.00 73 1014.5
20200929224555 18 236 4.8 11.3 0.00 0.00 0.00 72 1014.6
20200929224055 18 261 3.2 9.7 0.00 0.00 0.00 72 1014.5
20200929223554 18 274 0.0 0.0 0.00 0.00 0.00 71 1014.4
20200929223054 18 274 1.6 8.0 0.00 0.00 0.00 71 1014.5
20200929222554 18 245 0.0 11.3 0.00 0.00 0.00 71 1014.5
20200929222053 18 256 3.2 12.9 0.00 0.00 0.00 71 1014.5
20200929221553 18 230 1.6 8.0 0.00 0.00 0.00 70 1014.6
20200929221055 18 261 0.0 14.5 0.00 0.00 0.00 70 1014.5
20200929220553 18 259 3.2 11.3 0.00 0.00 0.00 70 1014.4
20200929220052 18 257 4.8 14.5 0.00 0.00 0.00 69 1014.5
20200929215552 19 263 8.0 12.9 0.00 0.00 0.00 69 1014.5
20200929215052 19 260 3.2 12.9 0.00 0.00 0.00 69 1014.5
20200929214552 19 264 1.6 12.9 0.00 0.00 0.00 68 1014.6
20200929214053 19 266 3.2 11.3 0.00 0.00 0.00 68 1014.7
20200929213552 19 301 4.8 11.3 0.00 0.00 0.00 67 1014.6
20200929213054 20 262 3.2 11.3 0.00 0.00 0.00 67 1014.5
20200929212552 20 273 3.2 12.9 0.00 0.00 0.00 66 1014.5
20200929212052 20 286 1.6 12.9 0.00 0.00 0.00 66 1014.6
20200929211555 20 237 0.0 8.0 0.00 0.00 0.00 66 1014.4
20200929211052 20 221 0.0 8.0 0.00 0.00 0.00 65 1014.4
20200929210552 20 264 3.2 12.9 0.00 0.00 0.00 65 1014.4
20200929210052 20 218 1.6 8.0 0.00 0.00 0.00 65 1014.4
20200929205553 20 239 3.2 11.3 0.00 0.00 0.00 65 1014.3
20200929205053 20 226 3.2 11.3 0.00 0.00 0.00 64 1014.3
20200929204552 20 242 1.6 11.3 0.00 0.00 0.00 64 1014.3
20200929204051 20 278 4.8 19.3 0.00 0.00 0.00 63 1014.3
20200929203552 21 240 4.8 19.3 0.00 0.00 0.00 63 1014.2
20200929203052 21 281 9.7 20.9 0.00 0.00 0.00 62 1014.2
20200929202552 21 228 8.0 12.9 0.00 0.00 0.00 62 1014.2
20200929202054 21 47 1.6 12.9 0.00 0.00 0.00 62 1014.1
20200929201553 21 272 1.6 12.9 0.00 0.00 0.00 61 1014.0
20200929201055 21 268 3.2 14.5 0.00 0.00 0.00 61 1014.0
20200929200553 21 253 9.7 16.1 0.00 0.00 0.00 61 1014.0
20200929200056 21 312 3.2 20.9 0.00 0.00 0.00 61 1014.0
20200929195553 21 264 1.6 11.3 0.00 0.00 0.00 61 1014.0
20200929195052 22 315 4.8 11.3 0.00 0.00 0.00 61 1013.9
20200929194554 22 263 4.8 11.3 0.00 0.00 0.00 61 1013.9
20200929194054 22 262 6.4 12.9 0.00 0.00 0.00 61 1013.9
20200929193552 22 237 4.8 19.3 0.00 0.00 0.00 61 1013.9
20200929193103 22 340 4.8 14.5 0.00 0.00 0.00 61 1013.8
20200929192553 22 351 6.4 19.3 0.00 0.00 0.00 60 1013.8
20200929192053 22 278 4.8 19.3 0.00 0.00 0.00 60 1013.8
20200929191552 22 284 6.4 19.3 0.00 0.00 0.00 60 1013.8
20200929191059 23 260 4.8 19.3 0.00 0.00 0.00 60 1013.8
20200929190555 23 229 0.0 19.3 0.00 0.00 0.00 60 1013.8
20200929190057 23 263 3.2 16.1 0.00 0.00 0.00 59 1013.8
20200929185553 23 214 1.6 11.3 0.00 0.00 0.00 59 1013.7
20200929185055 23 222 4.8 14.5 0.00 0.00 0.00 58 1013.6
20200929184553 23 217 4.8 12.9 0.00 0.00 0.00 58 1013.5
20200929184053 24 188 4.8 12.9 0.00 0.00 0.00 57 1013.4
20200929183554 24 203 6.4 12.9 0.00 0.00 0.00 56 1013.3
20200929183053 24 200 1.6 19.3 0.00 0.00 0.00 55 1013.3
20200929182555 25 225 1.6 11.3 0.00 0.00 0.00 54 1013.3
20200929182053 25 194 1.6 9.7 0.00 0.00 0.00 54 1013.2
20200929181553 25 188 4.8 11.3 0.00 0.00 0.00 53 1013.2
20200929181054 25 183 4.8 11.3 0.00 0.00 0.00 53 1013.1
20200929180553 25 185 3.2 16.1 0.00 0.00 0.00 52 1013.0
20200929180054 25 207 0.0 8.0 0.00 0.00 0.00 52 1012.6
20200929175558 25 188 3.2 11.3 0.00 0.00 0.00 52 1012.5
20200929175052 26 175 3.2 11.3 0.00 0.00 0.00 52 1012.4
20200929174553 26 183 1.6 9.7 0.00 0.00 0.00 51 1012.4
20200929174053 26 203 3.2 12.9 0.00 0.00 0.00 50 1012.4
20200929173552 26 206 0.0 1.6 0.00 0.00 0.00 48 1012.4
20200929173052 26 308 3.2 12.9 0.00 0.00 0.00 47 1012.4
20200929172553 27 194 3.2 11.3 0.00 0.00 0.00 44 1012.3
20200929172053 27 225 4.8 12.9 0.00 0.00 0.00 44 1012.3
20200929171552 27 156 1.6 9.7 0.00 0.00 0.00 43 1012.3
20200929171056 27 214 1.6 12.9 0.00 0.00 0.00 42 1012.3
20200929170554 27 201 8.0 12.9 0.00 0.00 0.00 42 1012.2
20200929170103 28 270 0.0 12.9 0.00 0.00 0.00 42 1012.7
20200929165554 28 169 8.0 9.7 0.00 0.00 0.00 42 1012.6
20200929165053 28 126 3.2 11.3 0.00 0.00 0.00 41 1012.6
20200929164554 28 218 1.6 11.3 0.00 0.00 0.00 41 1012.6
20200929164053 28 126 4.8 12.9 0.00 0.00 0.00 41 1012.6
20200929163557 29 236 3.2 14.5 0.00 0.00 0.00 41 1012.5
20200929163054 29 286 1.6 16.1 0.00 0.00 0.00 40 1012.5
20200929162553 30 250 1.6 4.8 0.00 0.00 0.00 39 1012.4
20200929162054 30 276 1.6 9.7 0.00 0.00 0.00 37 1012.4
20200929161553 30 283 1.6 11.3 0.00 0.00 0.00 35 1012.3
20200929161054 30 269 0.0 1.6 0.00 0.00 0.00 35 1012.3
20200929160556 30 267 8.0 19.3 0.00 0.00 0.00 33 1012.4
20200929160053 30 218 1.6 11.3 0.00 0.00 0.00 29 1012.4
20200929155554 30 216 0.0 0.0 0.00 0.00 0.00 29 1012.4
20200929155053 30 216 0.0 16.1 0.00 0.00 0.00 30 1012.4
20200929154555 30 190 4.8 19.3 0.00 0.00 0.00 29 1012.4
20200929154056 30 215 0.0 3.2 0.00 0.00 0.00 28 1012.5
20200929153554 30 215 0.0 0.0 0.00 0.00 0.00 28 1012.5
20200929153054 30 215 3.2 12.9 0.00 0.00 0.00 28 1012.5
20200929152554 30 191 0.0 1.6 0.00 0.00 0.00 28 1012.5
20200929152053 30 190 0.0 4.8 0.00 0.00 0.00 29 1012.5
20200929151554 30 190 1.6 14.5 0.00 0.00 0.00 29 1012.5
20200929151055 30 192 0.0 0.0 0.00 0.00 0.00 26 1012.6
20200929150559 30 192 0.0 0.0 0.00 0.00 0.00 27 1012.6
20200929150053 30 192 1.6 9.7 0.00 0.00 0.00 27 1012.6
20200929145554 30 192 0.0 8.0 0.00 0.00 0.00 29 1012.6
20200929145055 30 192 1.6 19.3 0.00 0.00 0.00 29 1012.6
20200929144556 29 195 1.6 11.3 0.00 0.00 0.00 29 1012.6
20200929144054 30 196 8.0 14.5 0.00 0.00 0.00 29 1012.6
20200929143554 30 206 0.0 11.3 0.00 0.00 0.00 30 1012.6
20200929143055 29 207 0.0 12.9 0.00 0.00 0.00 29 1012.6
20200929142555 30 204 9.7 16.1 0.00 0.00 0.00 29 1012.7
20200929142053 30 201 3.2 12.9 0.00 0.00 0.00 30 1012.7
20200929141558 30 200 8.0 16.1 0.00 0.00 0.00 29 1012.8
20200929141054 30 226 3.2 11.3 0.00 0.00 0.00 30 1012.9
20200929140553 30 232 1.6 9.7 0.00 0.00 0.00 30 1012.9
20200929140053 29 232 1.6 8.0 0.00 0.00 0.00 30 1013.0
20200929135553 29 232 0.0 3.2 0.00 0.00 0.00 30 1013.0
20200929135057 30 232 4.8 9.7 0.00 0.00 0.00 29 1013.0
20200929134555 30 228 0.0 1.6 0.00 0.00 0.00 30 1013.1
20200929134055 30 228 4.8 12.9 0.00 0.00 0.00 29 1013.1
20200929133558 30 226 4.8 16.1 0.00 0.00 0.00 31 1013.1
20200929133055 30 210 1.6 11.3 0.00 0.00 0.00 31 1013.2
20200929132556 29 208 6.4 16.1 0.00 0.00 0.00 32 1013.3
20200929132058 29 202 0.0 0.0 0.00 0.00 0.00 31 1013.4
20200929131554 28 202 0.0 9.7 0.00 0.00 0.00 31 1013.5
20200929131053 28 202 3.2 14.5 0.00 0.00 0.00 31 1013.6
20200929130553 28 224 4.8 11.3 0.00 0.00 0.00 31 1013.6
20200929130054 29 234 0.0 8.0 0.00 0.00 0.00 30 1013.6
20200929125554 29 234 6.4 11.3 0.00 0.00 0.00 30 1013.6
20200929125054 30 232 1.6 4.8 0.00 0.00 0.00 30 1013.7
20200929124554 29 232 0.0 0.0 0.00 0.00 0.00 30 1013.7
20200929124053 28 232 0.0 0.0 0.00 0.00 0.00 30 1013.8
20200929123554 28 232 0.0 11.3 0.00 0.00 0.00 30 1014.1
20200929123055 28 231 0.0 4.8 0.00 0.00 0.00 31 1014.1
20200929122557 28 231 8.0 11.3 0.00 0.00 0.00 31 1014.2
20200929122055 28 238 4.8 11.3 0.00 0.00 0.00 32 1014.2
20200929121554 28 246 1.6 8.0 0.00 0.00 0.00 31 1014.2
20200929121101 28 246 3.2 12.9 0.00 0.00 0.00 31 1014.3
20200929120556 28 243 0.0 0.0 0.00 0.00 0.00 31 1014.3
20200929120058 28 243 0.0 1.6 0.00 0.00 0.00 31 1014.4
20200929115553 28 243 0.0 1.6 0.00 0.00 0.00 32 1014.4
20200929115056 28 243 4.8 11.3 0.00 0.00 0.00 32 1014.5
20200929114554 29 237 0.0 9.7 0.00 0.00 0.00 33 1014.5
20200929114054 28 237 3.2 8.0 0.00 0.00 0.00 34 1014.5
20200929113553 28 236 0.0 9.7 0.00 0.00 0.00 35 1014.5
20200929113054 28 236 1.6 9.7 0.00 0.00 0.00 35 1014.6
20200929112554 28 236 0.0 0.0 0.00 0.00 0.00 35 1014.6
20200929112053 28 236 0.0 0.0 0.00 0.00 0.00 35 1014.6
20200929111600 27 236 0.0 1.6 0.00 0.00 0.00 38 1014.7
20200929111054 27 236 0.0 1.6 0.00 0.00 0.00 39 1014.7
20200929110554 26 236 0.0 0.0 0.00 0.00 0.00 41 1014.7
20200929110054 25 236 3.2 9.7 0.00 0.00 0.00 43 1014.8
20200929105555 25 236 6.4 9.7 0.00 0.00 0.00 42 1014.8
20200929105055 25 237 0.0 4.8 0.00 0.00 0.00 43 1014.8
20200929104556 25 238 1.6 12.9 0.00 0.00 0.00 44 1014.9
20200929104054 25 243 4.8 12.9 0.00 0.00 0.00 44 1015.0
20200929103556 25 261 0.0 0.0 0.00 0.00 0.00 49 1015.0
20200929103054 24 261 0.0 0.0 0.00 0.00 0.00 53 1015.1
20200929102554 24 261 0.0 0.0 0.00 0.00 0.00 53 1015.1
20200929102054 24 261 0.0 0.0 0.00 0.00 0.00 53 1015.2
20200929101556 24 262 0.0 0.0 0.00 0.00 0.00 54 1015.2
20200929101055 24 262 0.0 0.0 0.00 0.00 0.00 56 1015.2
20200929100555 23 261 0.0 0.0 0.00 0.00 0.00 59 1015.2
20200929100054 23 262 0.0 0.0 0.00 0.00 0.00 60 1015.2
20200929095556 22 262 0.0 0.0 0.00 0.00 0.00 61 1015.3
20200929095054 22 262 0.0 0.0 0.00 0.00 0.00 61 1015.3
20200929094554 22 262 0.0 0.0 0.00 0.00 0.00 62 1015.3
20200929094054 22 262 0.0 0.0 0.00 0.00 0.00 64 1015.3
20200929093553 21 262 0.0 0.0 0.00 0.00 0.00 66 1015.3
20200929093054 21 262 0.0 0.0 0.00 0.00 0.00 66 1015.3
20200929092554 21 262 0.0 0.0 0.00 0.00 0.00 67 1015.2
20200929092054 21 262 0.0 0.0 0.00 0.00 0.00 68 1015.2
20200929091557 21 262 0.0 0.0 0.00 0.00 0.00 69 1015.2
20200929091054 20 262 0.0 0.0 0.00 0.00 0.00 70 1015.2
20200929090554 20 262 0.0 0.0 0.00 0.00 0.00 72 1015.3
20200929090054 20 262 0.0 0.0 0.00 0.00 0.00 73 1015.2
20200929085555 19 262 0.0 0.0 0.00 0.00 0.00 75 1015.2
20200929085056 18 262 0.0 0.0 0.00 0.00 0.00 76 1015.2
20200929084555 18 262 0.0 0.0 0.00 0.00 0.00 77 1015.2
20200929084055 18 262 0.0 0.0 0.00 0.00 0.00 78 1015.2
20200929083557 18 262 0.0 0.0 0.00 0.00 0.00 79 1015.1
20200929083054 17 262 0.0 0.0 0.00 0.00 0.00 80 1015.1
20200929082556 17 262 0.0 0.0 0.00 0.00 0.00 81 1015.1
20200929082059 17 262 0.0 0.0 0.00 0.00 0.00 82 1015.0
20200929081555 16 261 0.0 0.0 0.00 0.00 0.00 85 1015.0
20200929081056 16 262 0.0 0.0 0.00 0.00 0.00 85 1015.0
20200929080556 16 262 0.0 0.0 0.00 0.00 0.00 86 1015.0
20200929080056 16 262 0.0 0.0 0.00 0.00 0.00 88 1014.9
20200929075557 15 262 0.0 0.0 0.00 0.00 0.00 89 1015.0
20200929075102 15 262 0.0 0.0 0.00 0.00 0.00 90 1015.0
20200929074554 15 262 0.0 0.0 0.00 0.00 0.00 91 1015.0
20200929074057 15 261 0.0 0.0 0.00 0.00 0.00 91 1015.0
20200929073554 15 262 0.0 0.0 0.00 0.00 0.00 91 1014.9
20200929073055 14 262 0.0 0.0 0.00 0.00 0.00 91 1015.0
20200929072554 14 262 0.0 0.0 0.00 0.00 0.00 91 1014.9
20200929072058 14 262 0.0 0.0 0.00 0.00 0.00 91 1014.8
20200929071558 13 262 0.0 0.0 0.00 0.00 0.00 91 1014.6
20200929071054 13 262 0.0 0.0 0.00 0.00 0.00 91 1014.6
20200929070554 13 262 0.0 0.0 0.00 0.00 0.00 91 1014.5
20200929070054 13 262 0.0 0.0 0.00 0.00 0.00 91 1014.5
20200929065559 13 262 0.0 0.0 0.00 0.00 0.00 91 1014.5
20200929065055 14 352 0.0 0.0 0.00 0.00 0.00 91 1014.2
20200929064554 14 0 0.0 0.0 0.00 0.00 0.00 91 1014.2
20200929064057 14 0 0.0 0.0 0.00 0.00 0.00 91 1014.2
20200929063556 14 0 0.0 0.0 0.00 0.00 0.00 91 1014.2
20200929062956 14 0 0.0 0.0 0.00 0.00 0.00 91 1014.2
20200929062455 14 0 0.0 0.0 0.00 0.00 0.00 91 1014.2
20200929061958 14 0 0.0 0.0 0.00 0.00 0.00 91 1014.2
20200929061454 14 0 0.0 0.0 0.00 0.00 0.00 91 1014.0
20200929061006 14 0 0.0 0.0 0.00 0.00 0.00 91 1014.0
20200929060456 14 3 0.0 0.0 0.00 0.00 0.00 91 1013.9
20200929055957 14 262 0.0 0.0 0.00 0.00 0.00 91 1014.0
20200929055459 14 262 0.0 0.0 0.00 0.00 0.00 91 1014.0
20200929054955 14 262 0.0 1.6 0.00 0.00 0.00 91 1014.0
20200929054455 14 262 1.6 4.8 0.00 0.00 0.00 90 1013.9
20200929053959 14 262 0.0 1.6 0.00 0.00 0.00 90 1014.0
20200929053509 14 262 0.0 0.0 0.00 0.00 0.00 90 1014.0
20200929052955 14 262 3.2 11.3 0.00 0.00 0.00 90 1013.9
20200929052457 14 262 0.0 3.2 0.00 0.00 0.00 90 1013.9
20200929051955 14 262 1.6 4.8 0.00 0.00 0.00 90 1013.9
20200929051457 14 262 0.0 1.6 0.00 0.00 0.00 89 1013.9
20200929050955 14 262 0.0 0.0 0.00 0.00 0.00 89 1013.9
20200929050506 14 262 0.0 0.0 0.00 0.00 0.00 89 1013.9
20200929050004 14 262 0.0 0.0 0.00 0.00 0.00 89 1013.8
20200929045456 14 262 0.0 0.0 0.00 0.00 0.00 89 1013.8
20200929044956 14 262 0.0 0.0 0.00 0.00 0.00 88 1013.7
20200929044500 14 262 0.0 0.0 0.00 0.00 0.00 88 1013.7
20200929043954 14 262 0.0 0.0 0.00 0.00 0.00 88 1013.7
20200929043458 14 262 0.0 0.0 0.00 0.00 0.00 88 1013.7
20200929042956 15 262 0.0 0.0 0.00 0.00 0.00 88 1013.7
20200929042457 15 262 0.0 0.0 0.00 0.00 0.00 88 1013.7
20200929041955 15 261 0.0 0.0 0.00 0.00 0.00 88 1013.7
20200929041457 15 262 0.0 0.0 0.00 0.00 0.00 88 1013.7
20200929040956 15 262 1.6 11.3 0.00 0.00 0.00 88 1013.7
20200929040458 15 262 0.0 3.2 0.00 0.00 0.00 87 1013.7
20200929035955 15 262 0.0 0.0 0.00 0.00 0.00 87 1013.7
20200929035457 15 262 0.0 0.0 0.00 0.00 0.00 87 1013.7
20200929034956 15 262 0.0 0.0 0.00 0.00 0.00 86 1013.7
20200929034455 15 262 0.0 0.0 0.00 0.00 0.00 86 1013.7
20200929033957 15 262 0.0 0.0 0.00 0.00 0.00 86 1013.7
20200929033456 15 262 0.0 0.0 0.00 0.00 0.00 87 1013.7